Miscellaneous Local Product
Issued by NWS Hastings, NE

Home | Current Version | Previous Version | Text Only | Print | Product List | Glossary Off
Versions: 1 2 3 4 5 6 7 8 9 10 11 12 13 14 15 16 17 18 19 20 21 22 23 24 25 26 27 28 29 30 31 32 33 34 35 36 37 38 39 40 41 42 43 44 45 46 47 48 49 50

327
AXUS43 KGID 051602
MISGRI

GID CWA HOURLY WEATHER ROUNDUP
NATIONAL WEATHER SERVICE HASTINGS NE
1100 AM CDT THU MAY 05 2016

NOTE: "FAIR" INDICATES FEW OR NO CLOUDS BELOW 12,000 FEET WITH NO
SIGNIFICANT WEATHER AND/OR OBSTRUCTIONS TO VISIBILITY.

...SOUTH CENTRAL NEBRASKA...

CITY           SKY/WX    TMP DP  RH WIND       PRES   REMARKS
GRAND ISLAND   SUNNY     70  38  31 SW6       30.11F
HASTINGS       SUNNY     69  37  30 VRB5      30.11F
KEARNEY        SUNNY     68  37  32 S8        30.12F
ORD            SUNNY     68  40  35 S10       30.08F
YORK           SUNNY     68  32  26 W6        30.11F
AURORA         SUNNY     69  37  30 W3        30.11S
HOLDREGE       SUNNY     67  36  31 S8        30.12S
HEBRON         SUNNY     65  32  29 CALM      30.12S

...NEBRASKA PANHANDLE...

CITY           SKY/WX    TMP DP  RH WIND       PRES   REMARKS
CHADRON        SUNNY     71  45  39 W6        29.99F
ALLIANCE       SUNNY     73  43  33 S9        30.04F
SCOTTSBLUFF    SUNNY     70  43  37 CALM      30.04F
SIDNEY         CLOUDY    73  41  31 SW14      30.09F

...WESTERN AND NORTH CENTRAL NEBRASKA...

CITY           SKY/WX    TMP DP  RH WIND       PRES   REMARKS
VALENTINE      SUNNY     73  43  33 S12       30.03F
AINSWORTH      SUNNY     73  45  36 S12       30.05F
ONEILL         SUNNY     70  41  34 SW12      30.07F
BROKEN BOW     SUNNY     70  46  42 S9        30.08F
IMPERIAL       SUNNY     72  42  34 S15       30.09F
NORTH PLATTE   SUNNY     69  50  50 VRB6      30.09F
MCCOOK         SUNNY     69  51  52 SW3       30.10F

...EASTERN NEBRASKA...

CITY           SKY/WX    TMP DP  RH WIND       PRES   REMARKS
NORFOLK        SUNNY     69  36  29 SW9       30.08F
SO SIOUX CITY  SUNNY     68  44  42 S5        30.07F
TEKAMAH        SUNNY     65  45  48 SE3       30.09S
COLUMBUS       SUNNY     68  41  37 SW8       30.11S
ALBION         SUNNY     69  39  34 SW9       30.09F
OMAHA EPPLEY   MOSUNNY   66  44  45 SE3       30.09S
OFFUTT AFB     SUNNY     66  43  44 VRB2      30.08S
MILLARD        SUNNY     67  43  42 NW3       30.09S
LINCOLN        SUNNY     69  39  33 CALM      30.11S
NEBRASKA CITY  SUNNY     66  38  35 CALM      30.10S
BEATRICE       SUNNY     67  41  38 NW6       30.11F
FALLS CITY     SUNNY     66  45  46 CALM      30.10R

...NORTHERN KANSAS...

CITY           SKY/WX    TMP DP  RH WIND       PRES   REMARKS
GOODLAND       SUNNY     73  43  33 S16       30.10F
HILL CITY      SUNNY     72  47  40 SW8       30.12F
NORTON         SUNNY     72  43  35 S8        30.10
PHILLIPSBURG   SUNNY     68  45  42 SE3       30.12F
SMITH CENTER   SUNNY     68  39  34 E3        30.13S
BELOIT         SUNNY     66  34  30 CALM      30.11F
HAYS           SUNNY     70  45  40 S5        30.13S
RUSSELL        SUNNY     68  44  42 CALM      30.12S
CONCORDIA      SUNNY     68  36  30 CALM      30.12S
SALINA         SUNNY     69  45  41 CALM      30.13F
TOPEKA         SUNNY     69  44  40 W7        30.10S



USA.gov is the U.S. government's official web portal to all federal, state and local government web resources and services.